Etusivu
METAR-TAF:

METAR-TAF

Lentoasemat :

Sisseton Municipal Airport

Sisseton, Etelä-Dakota, Yhdysvallat

Leveyspiiri: 45-40-08N, Pituuspiiri: 096-59-29W, korkeus merenpinnasta: 354 m

Tämänhetkinen sää

Tämä raportti tehtiin 35 minuuttia sitten, kello 12.56 UTC
tyyntä
Lämpötila -3°C
Kosteus 80%
Ilmanpaine 1010 hPa

METAR: K8D3 131256Z AUTO 00000KT M03/M06 A2982 RMK AO1 SLP124 T10281061

Aika: 07:31 (13:31 UTC)


TAF: puuttuu

Säähavainnot ja -ennusteet yli 4000 lentoasemalta (METAR- ja TAF-raportit).

Käytössä olevat sääasemat on merkitty karttaan keltaisilla ja punaisilla pisteillä.

Aseta hiiri pisteen päälle nähdäksesi sääaseman nimen.

Klikkaa sitten nähdäksesi säähavainnot ja -ennusteet.

Kartan vaihtaminen: klikkaa mustalla rastilla varustettuja vihreitä pisteitä, niin voit zoomata sisään; viivalla varustettua vihreää pistettä, niin voit zoomata ulos tai vihreitä nuolia, niin pääset viereisille kartoille.


METAR-TAF: